This is the latest recevied weather packets stored in our database for station/object F5PHW-13. If no packets are shown the sender has not sent any weather packets the latest 10 day(s).
| Time | Temp. | Humidity | Pressure | Rain* | Wind** | Luminosity | Snow |
|---|---|---|---|---|---|---|---|
| 1777589476 | 14.44° C | 84% | 1017.2 hPa | 0 mm | - | - | - |
| 1777588276 | 14.44° C | 84% | 1017.1 hPa | 0 mm | - | - | - |
| 1777587080 | 15° C | 84% | 1017.1 hPa | 0 mm | - | - | - |
| 1777585879 | 15° C | 84% | 1017 hPa | 0 mm | - | - | - |
| 1777584680 | 15° C | 83% | 1017 hPa | 0 mm | - | - | - |
| 1777583480 | 15° C | 83% | 1016.9 hPa | 0 mm | - | - | - |
| 1777582280 | 15° C | 83% | 1016.7 hPa | 0 mm | - | - | - |
| 1777581080 | 15.56° C | 83% | 1016.6 hPa | 0 mm | - | - | - |
| 1777579881 | 15.56° C | 83% | 1016.3 hPa | 0 mm | - | - | - |
| 1777578679 | 15.56° C | 82% | 1016.2 hPa | 0 mm | - | - | - |
| 1777577479 | 15.56° C | 82% | 1016 hPa | 0 mm | - | - | - |
| 1777576278 | 16.11° C | 82% | 1015.5 hPa | 0 mm | - | - | - |
| 1777575081 | 16.11° C | 81% | 1015.4 hPa | 0 mm | - | - | - |
| 1777573877 | 16.11° C | 81% | 1015.2 hPa | 0 mm | - | - | - |
| 1777572681 | 16.67° C | 80% | 1015.2 hPa | 0 mm | - | - | - |
| 1777571479 | 17.22° C | 79% | 1015 hPa | 0 mm | - | - | - |
| 1777570279 | 17.22° C | 80% | 1014.7 hPa | 0 mm | - | - | - |
| 1777569080 | 17.22° C | 80% | 1014.8 hPa | 0 mm | - | - | - |
| 1777567879 | 17.22° C | 81% | 1014.7 hPa | 0 mm | - | - | - |
| 1777566679 | 17.22° C | 81% | 1014.5 hPa | 0 mm | - | - | - |
| 1777565479 | 17.78° C | 80% | 1014.3 hPa | 0 mm | - | - | - |
| 1777564282 | 18.33° C | 78% | 1014 hPa | 0 mm | - | - | - |
| 1777563077 | 18.89° C | 78% | 1013.9 hPa | 0 mm | - | - | - |
| 1777561880 | 18.33° C | 81% | 1013.8 hPa | 0 mm | - | - | - |
| 1777560681 | 17.78° C | 82% | 1014 hPa | 0 mm | - | - | - |
* Rain latest hour (hover to see other rain measurements)
** Current wind speed in m/s (hover to see current wind gust speed)